Tracking 33747 objects as of 12-Apr-2026
HD Live streaming from Space Station
objects crossing your sky now

STARLINK-36659

Track STARLINK-36659 now!
10-day predictions
STARLINK-36659 is classified as:


NORAD ID: 67833
Int'l Code: 2026-033N
Perigee: 489.4 km
Apogee: 491.0 km
Inclination: 43.0 °
Period: 94.3 minutes
Semi major axis: 6861 km
RCS: Unknown
Launch date: February 16, 2026
Source: United States (US)
Launch site: AIR FORCE EASTERN TEST RANGE (AFETR)
Your satellite tracking list
Your tracking list is empty




NASA's NSSDC Master Catalog

Two Line Element Set (TLE):
1 67833U 26033N   26101.62975498  .00018698  00000-0  68711-3 0  9999
2 67833  42.9999  80.8481 0001183 223.6389 136.4369 15.27588081  9710
Source of the keplerian elements: AFSPC